Regional Weather Roundup
Issued by NWS

Home | Current Version | Previous Version | Graphics & Text | Print | Product List | Glossary On
Versions: 1 2 3 4 5 6 7 8 9 10 11 12 13 14 15 16 17 18 19 20 21 22 23 24 25 26 27 28 29 30 31 32 33 34 35 36 37 38 39 40 41 42 43 44 45 46 47 48 49 50
000
ASUS43 KTOP 300059
RWRKS

WEATHER ROUNDUP FOR KANSAS
NATIONAL WEATHER SERVICE GOODLAND KS
800 PM CDT FRI APR 29 2016

NOTE:  "FAIR" INDICATES FEW OR NO CLOUDS BELOW 12,000 FEET WITH NO
SIGNIFICANT WEATHER AND/OR OBSTRUCTIONS TO VISIBILITY.

KSZ001>006-013>018-027>032-041>047-300200-
NORTHWEST KANSAS

CITY           SKY/WX    TMP DP  RH WIND       PRES   REMARKS
GOODLAND       LGT SNOW  32  32 100 N10       29.86F VSB 3/4 WCI  24
HAYS           CLOUDY    46  37  71 E9        29.77S
HILL CITY      HVY RAIN  44  42  93 W5        29.87R VSB 3/4
RUSSELL        HVY RAIN  47  45  93 E21G28    29.74S FOG
$$

KSZ061>065-074>080-084>089-300200-
SOUTHWEST KANSAS

CITY           SKY/WX    TMP DP  RH WIND       PRES   REMARKS
DODGE CITY     LGT RAIN  44  43  96 N8        29.80S FOG
ELKHART          N/A     42  37  82 N15         N/A
GARDEN CITY    CLOUDY    40  38  93 N20       29.80F WCI  30
GREAT BEND     CLOUDY    46  41  81 E14       29.74S
LIBERAL        CLOUDY    45  39  81 N16G23    29.81S
$$

KSZ066>073-081>083-090>101-300200-
SOUTHEAST KANSAS

CITY           SKY/WX    TMP DP  RH WIND       PRES   REMARKS
CHANUTE        CLOUDY    58  53  84 E24G35    29.66S
COFFEYVILLE    RAIN      60  58  92 E17G24    29.66F
HUTCHINSON     CLOUDY    51  48  89 E14G24    29.70F
MEDICINE LODGE   N/A     51  49  92 W12       29.71R
NEWTON         CLOUDY    52  45  76 E15G21    29.71F
PARSONS        CLOUDY    59  57  93 E10G30    29.68S
WICHITA INTL   CLOUDY    56  52  86 E20G26    29.66F
WICHITA JABRA  CLOUDY    54  53  97 E15G25    29.67F
WICHITA MCCONL CLOUDY    55  52  88 E16       29.67F
WINFIELD       CLOUDY    58  54  86 E21G28    29.66R
$$

KSZ007>012-019>026-033>040-048>060-102>105-300200-
NORTHEAST KANSAS

CITY           SKY/WX    TMP DP  RH WIND       PRES   REMARKS
CONCORDIA      CLOUDY    48  45  89 NE16G28   29.78F
EMPORIA        CLOUDY    52  50  93 NE20G30   29.71F
LAWRENCE       LGT RAIN  53  50  89 E18G28    29.77F
MANHATTAN      LGT RAIN  52  47  83 E17G25    29.81F
OLATHE IND     CLOUDY    53  51  93 E17G25    29.82R
OLATHE EXE     CLOUDY    52  50  93 NE17G30   29.81F
SALINA         CLOUDY    51  48  89 E17G29    29.73F
TOPEKA BILLARD LGT RAIN  53  49  86 NE17G26   29.78F
TOPEKA FORBES  LGT RAIN  53  50  89 NE15G24   29.76F
$$



USA.gov is the U.S. government's official web portal to all federal, state and local government web resources and services.